Location: Helsinki
(60.1699°N, 24.9384°E)
Time: 17:41:00
(UTC+02:00)

A-11 Canister half - Pass Details

Date: 30 October 2020
Orbit: 1525 x 1684 km, 47.3° (Epoch: 29 November)

Event Time Altitude Azimuth Distance (km) Brightness Sun altitude
Rises 17:39:56 0° 258° (WSW) 4,742 14.1 -9.2°
Reaches altitude 10° 17:43:18 10° 250° (WSW) 3,739 12.6 -9.7°
Maximum altitude 17:51:34 37° 188° (S) 2,233 10.0 -10.7°
Drops below altitude 10° 17:59:44 10° 126° (SE) 3,691 10.6 -11.7°
Enters shadow 18:01:50 - 121° (ESE) 4,309 10.9 -11.9°
